Regional Weather Roundup
Issued by NWS Goodland, KS

Home | Current Version | Previous Version | Graphics & Text | Print | Product List | Glossary On
Versions: 1 2 3 4 5 6 7 8 9 10 11 12 13 14 15 16 17 18 19 20 21 22 23 24 25 26 27 28 29 30 31 32 33 34 35 36 37 38 39 40 41 42 43 44 45 46 47 48 49 50
000
ASUS43 KGLD 281559
RWRGLD

GOODLAND FORECAST AREA HOURLY WEATHER ROUNDUP
NATIONAL WEATHER SERVICE GOODLAND KS
1000 AM MDT SUN AUG 28 2016

...OFFICIAL OBSERVATIONS...

CITY           SKY/WX    TMP DP  RH WIND       PRES   REMARKS
GOODLAND KS    MOSUNNY   71  57  61 S8        30.13S
HILL CITY KS   CLOUDY    74  64  71 CALM      30.11S
IMPERIAL NEB   CLOUDY    76  57  51 SW8       30.10S
MCCOOK NEB     MOSUNNY   77  57  50 VRB6      30.11R
AKRON CO       SUNNY     80  51  36 SW10      30.14S
BURLINGTON CO  SUNNY     73  53  49 S10       30.14S
LIMON CO       SUNNY     75  51  43 VRB3      30.19S
$$

...UNOFFICIAL OBSERVATIONS...

CITY           SKY/WX    TMP DP  RH WIND       PRES   REMARKS
COLBY KS       MOSUNNY   73  61  64 S6        30.14S
LENORA KS        N/A     74  32  21 MISG        N/A
NORTON KS      SUNNY     73  59  60 SW5       30.10F
SHARON SPRINGS   N/A     69  61  75 S12         N/A
TRENTON NEB      N/A     75  32  20 MISG        N/A
KIT CARSON CO    N/A     68  56  65 CALM        N/A
YUMA CO          N/A     78  55  44 SW5G12      N/A
$$




USA.gov is the U.S. government's official web portal to all federal, state and local government web resources and services.